This is the latest recevied weather packets stored in our database for station/object AE5EW. If no packets are shown the sender has not sent any weather packets the latest 10 day(s).
| Time | Temp. | Humidity | Pressure | Rain* | Wind** | Luminosity | Snow |
|---|---|---|---|---|---|---|---|
| 1787602381 | 27.78° C | 80% | 1016.3 hPa | 0 mm | - | - | - |
| 1787602076 | 27.78° C | 80% | 1016.4 hPa | 0 mm | - | - | - |
| 1787601775 | 27.78° C | 80% | 1016.3 hPa | 0 mm | - | - | - |
| 1787601471 | 27.78° C | 79% | 1016.3 hPa | 0 mm | - | - | - |
| 1787601170 | 27.78° C | 79% | 1016.4 hPa | 0 mm | - | - | - |
| 1787600869 | 28.33° C | 79% | 1016.5 hPa | 0 mm | - | - | - |
| 1787600564 | 28.89° C | 78% | 1016.4 hPa | 0 mm | - | - | - |
| 1787600260 | 29.44° C | 77% | 1016.7 hPa | 0 mm | - | - | - |
| 1787599957 | 29.44° C | 81% | 1016.7 hPa | 0 mm | - | - | - |
| 1787599652 | 29.44° C | 83% | 1016.4 hPa | 0 mm | - | - | - |
| 1787599349 | 30° C | 84% | 1016.7 hPa | 0 mm | - | - | - |
| 1787599044 | 30° C | 83% | 1016.7 hPa | 0 mm | - | - | - |
| 1787598740 | 30° C | 82% | 1016.8 hPa | 0 mm | - | - | - |
| 1787598435 | 30° C | 83% | 1016.8 hPa | 0 mm | - | - | - |
| 1787598130 | 30.56° C | 80% | 1016.8 hPa | 0 mm | - | - | - |
| 1787597826 | 31.11° C | 76% | 1016.4 hPa | 0 mm | - | - | - |
| 1787597526 | 31.11° C | 75% | 1016.5 hPa | 0 mm | - | - | - |
| 1787597225 | 31.67° C | 75% | 1016.6 hPa | 0 mm | - | - | - |
| 1787596920 | 32.22° C | 73% | 1016.9 hPa | 0 mm | - | - | - |
| 1787596616 | 31.67° C | 71% | 1016.6 hPa | 0 mm | - | - | - |
| 1787596311 | 32.22° C | 71% | 1017.1 hPa | 0 mm | - | - | - |
| 1787596008 | 32.22° C | 70% | 1016.9 hPa | 0 mm | - | - | - |
| 1787595703 | 32.78° C | 69% | 1016.9 hPa | 0 mm | - | - | - |
| 1787595399 | 32.78° C | 68% | 1016.7 hPa | 0 mm | - | - | - |
| 1787595099 | 32.22° C | 70% | 1016.8 hPa | 0 mm | - | - | - |
* Rain latest hour (hover to see other rain measurements)
** Current wind speed in m/s (hover to see current wind gust speed)